Погода в Суне

Россия / Кировская область     58°10′47″N   51°16′23″E
темп.,
°C
ветер,
м/с
пор.,
м/с
влажн.,
%
обл.,
%
осадки,
мм/ч
давл.,
гПа
погр.,
м
25 мая, ср
ср2500:00+3зюз129495 0.0 1008144
03:00+2сз229276 0.0 100848
06:00+4ссз228743 0.0 1007317
09:00+8сз2271100 0.0 1007850
12:00+8зсз227197 0.1 10071056
15:00+9з2365100 0.4 1007817
18:00+8юз3469100 0.1 1007413
21:00+4юз33805 0.1 100739
26 мая, чт
чт2600:00+2юз36904 0.0 1008101
03:000юз489988 0.0 1008210
06:00+4юз5784100 0.0 1009596
09:00+4юз71091100 0.2 1009956
12:00+7юз687863 0.3 10101018
15:00+9ююз6974100 1.1 10101253
18:00+9ю5978100 0.6 1009807
21:00+6ю5894100 1.8 1009865
27 мая, пт
пт2700:00+6ююз489599 0.2 1008349
03:00+3ююв359839 0.3 100891
06:00+7ююв479174 0.0 1007399
09:00+9ююв6988100 0.1 1005696
12:00+8юв71294100 1.9 1004677
15:00+9ююв71395100 2.8 1003645
18:00+11юв6139393 0.1 1002614
21:00+10юв6139663 0.5 1002469
28 мая, сб
сб2800:00+10ююв7139693 1.0 1001467
03:00+10ююв71395100 1.5 1001750
06:00+10ю61096100 1.0 1002735
09:00+9ююз6109580 1.4 1004617
12:00+14ю81077100 0.6 10041133
15:00+10ю51293100 4.8 1004809
18:00+11ю71596100 4.1 1003940
21:00+11юз1016873 4.8 1004927
29 мая, вс
вс2900:00+8ююз6159331 0.0 1006490
03:00+8юз715925 0.0 1008518
06:00+10юз713880 0.0 1010776
09:00+13юз8116785 0.0 10111409
12:00+13юз8116987 0.1 10131542
15:00+15юз8136479 0.4 10131710
18:00+13юз61172100 0.4 1014833
21:00+9юз412895 0.8 1016257